Погода в Вольфсбурге

Германия     52°25′40″N   10°47′09″E
темп.,
°C
ветер,
м/с
пор.,
м/с
влажн.,
%
обл.,
%
осадки,
мм/ч
давл.,
гПа
погр.,
м
8 декабря, ср
ср801:00+1юв61487100 0.0 1003512
04:00+1юв71681100 0.0 1001620
07:000юв51396100 1.6 1001502
10:00+2юв5989100 0.5 1002393
13:00+3юв4787100 0.5 1002270
16:00+2вюв3690100 0.0 1002172
19:00+1вюв3790100 0.0 1003236
22:00+1вюв3798100 0.0 1004302
9 декабря, чт
чт901:00+1вюв2599100 0.4 1004179
04:00−1в3593100 2.1 1004294
07:00−1вюв2595100 2.3 1005252
10:00−1юв3493100 0.0 1006243
13:00+1вюв1186100 0.0 1005286
16:00+1юв1293100 0.0 100484
19:00−2ююв2398100 0.0 100545
22:00−1ю1296100 0.0 100451
10 декабря, пт
пт1001:00+1ю2792100 0.0 1003241
04:00+1ююз2698100 0.0 1001240
07:00+1ююв2498100 0.0 1000178
10:00+2вюв2394100 0.0 999130
13:00+3вюв238835 0.0 998278
16:000в23977 0.0 99852
19:00−1вюв25955 0.0 100086
22:00−2вюв24955 0.0 100175
11 декабря, сб
сб1101:00−2в229567 0.0 100441
04:00−2всв1195100 0.0 100613
07:00−2ссз119614 0.0 101013
10:000сз24905 0.0 1013151
13:00+3зсз358198 0.0 1015672
16:00+2юз368490 0.0 1017183
19:00+2юз5118795 0.0 1019402
22:00+2зюз51384100 0.0 1020481
12 декабря, вс
вс1201:00+2зюз51387100 0.0 1022627
04:00+2зюз41191100 0.0 1023432
07:00+1зюз41095100 0.0 1024334
10:00+2юз4108780 0.0 1024350
13:00+4юз498199 0.0 1024449
16:00+3ююз2689100 0.1 1023198
19:00+3ююз2796100 1.4 1023272
22:00+3ююз3995100 0.2 1023335